Regional Weather Roundup
Issued by NWS Wakefield, VA

Home | Current Version | Previous Version | Graphics & Text | Print | Product List | Glossary On
Versions: 1 2 3 4 5 6 7 8 9 10 11 12 13 14 15 16 17 18 19 20 21 22 23 24 25 26 27 28 29 30 31 32 33 34 35 36 37 38 39 40 41 42 43 44 45 46 47 48 49
147
ASUS41 KAKQ 081615
RWRAKQ

REGIONAL WEATHER ROUNDUP
NATIONAL WEATHER SERVICE WAKEFIELD VA
1100 AM EST MON FEB 08 2016

Note: "fair" indicates few or no clouds below 12,000 feet with no
significant weather and/or obstructions to visibility. * = Denotes
station may not report precipitation (e.g., rain,snow,etc.),
thunder or fog.

VAZ042-051-052>054-056-081700-
NORTHERN VIRGINIA

CITY           SKY/WX    TMP DP  RH WIND       PRES   REMARKS
WASH NATIONAL  PTSUNNY   44  28  53 E7        29.80S
DULLES         FAIR      42  23  46 VRB3      29.78S
FORT BELVOIR   FAIR      44  25  48 SE3       29.79S
QUANTICO       FAIR      44  26  49 CALM      29.81S
FREDERICKSBRG* FAIR      44  26  49 E3        29.78F
STAFFORD*      FAIR      43  24  46 E6        29.83F
WARRENTON      FAIR      44  27  50 CALM      29.77F
CULPEPER*      FAIR      42  23  46 SE3       29.78F
MANASSAS*      SUNNY     43  25  49 E3        29.79S
LEESBURG*      FAIR      43  28  56 E5        29.79F
WINCHESTER     FAIR      41  27  56 SE3       29.76F
FRONT ROYAL*   FAIR      37  27  65 CALM      29.75F
LURAY*         FAIR      36  28  75 CALM      29.74F
$$

VAZ048-049-060>072-079>083-081700-
CENTRAL AND SOUTH CENTRAL VIRGINIA

CITY           SKY/WX    TMP DP  RH WIND       PRES   REMARKS
RICHMOND       FAIR      45  27  49 VRB3      29.77F
CHESTERFIELD*  FAIR     N/A N/A N/A E3        29.79F
PETERSBURG*    FAIR      46  18  32 CALM      29.80F
HANOVER        FAIR      45  25  45 VRB7      29.79F
TAPPAHANNOCK*  FAIR      44  27  50 E5        29.80S
QUINTON*       FAIR      44  28  54 E6        29.79S
CHARLOTTSVILLE FAIR      42  21  43 E5        29.77F
GORDONSVILLE*  FAIR      42  23  48 NE3       29.77F
ORANGE*        FAIR      43  23  45 N5        29.79F
LOUISA*        FAIR      45  25  45 E3        29.75F
BUMPASS*       FAIR      44  22  43 MISG      29.78F
FARMVILLE*     FAIR      45  24  43 CALM      29.77F
CREWE*         FAIR      44  22  41 CALM      29.77F
FORT PICKETT*  FAIR      44  20  37 CALM      29.77F
CHASE CITY*    FAIR      44  20  38 S3        29.79S
CLARKSVILLE*   FAIR      45  23  42 SE3       29.79S
SOUTH HILL*    FAIR      43  22  43 CALM      29.84F
LAWRENCEVILLE* FAIR      44  23  43 CALM      29.78F
EMPORIA*       FAIR      45  25  45 SW6       29.81F
$$

VAZ088>098-081700-
SOUTHEAST VIRGINIA

CITY           SKY/WX    TMP DP  RH WIND       PRES   REMARKS
NORFOLK        FAIR      43  30  60 N10       29.78R
VIRGINIA BEACH FAIR      47  32  56 N9        29.78R
NORFOLK NAVAL  FAIR      45  31  58 N9        29.81R
WEST POINT*    FAIR      45  27  50 E6        29.81S
SALUDA*        CLOUDY    43  32  65 E5        29.79R
NEWPORT NEWS   FAIR      45  32  60 NE7       29.79S
LANGLEY AFB    MOSUNNY   43  32  63 N6        29.78R
FORT EUSTIS    FAIR      45  26  47 NW6       29.78R
WILLIAMSBURG*  FAIR      48  32  53 CALM      29.80F
HR EXEC AP*    FAIR      46  30  53 E3        29.81S
FRANKLIN*      FAIR      44  30  57 N3        29.80F
US460-WAKEFLD  FAIR      47  28  47 CALM      29.79F
$$

VAZ020-022-025-037-045-081700-
WEST CENTRAL AND SOUTHWEST VIRGINIA

CITY           SKY/WX    TMP DP  RH WIND       PRES   REMARKS
STAUNTON*      FAIR      41  31  67 CALM      29.75F
WAYNESBORO*    FAIR      40  20  44 E10       29.72F
HOT SPRINGS VA PTSUNNY   37  22  56 S7        29.63F
LYNCHBURG      FAIR      42  22  44 E7        29.78R
DANVILLE       CLOUDY    46  27  47 VRB3      29.79R
SOUTH BOSTON*  FAIR      46  25  43 S6        29.79S
MARTINSVILLE   CLOUDY    37  28  70 CALM      29.78F
ROANOKE        PTSUNNY   37  27  67 SE3       29.76F
BLACKSBURG     CLOUDY    38  27  66 SE6       29.72F
DUBLIN*        CLOUDY    36  30  80 CALM      29.71S
MARION*        CLOUDY    38  27  64 W10       29.71S
HILLSVILLE*    CLOUDY    38  25  60 S3        29.68S
RICHLANDS*     CLOUDY    36  24  62 SW6       29.66F
WISE*          PTSUNNY   36  25  64 SW10G17   29.67F
ABINGDON*      LGT SNOW  38  28  67 W10       29.71R
$$

MDZ021>025-VAZ099-100-081700-
SOUTHERN MARYLAND AND THE DELMARVA PENINSULA

CITY           SKY/WX    TMP DP  RH WIND       PRES   REMARKS
PATUXENT RIVER PTSUNNY   43  28  55 N8        29.78S
BAY BRIDGE APT   N/A     41  28  60 CALM      29.78F
LEONARDTOWN    MOSUNNY   41  28  60 CALM      29.79S
DOVER          PTSUNNY   42  32  69 N14       29.75F
GEORGETOWN     CLOUDY    42  31  64 N13G20    29.75F
EASTON         MOSUNNY   43  30  61 NE12      29.80F
CAMBRIDGE      MOSUNNY   41  28  60 N8        29.75F
SALISBURY      CLOUDY    42  30  62 N7        29.75S
OCEAN CITY     PTSUNNY   42  35  76 NE14G25   29.74F
WALLOPS ISLAND CLOUDY    42  31  64 N9        29.75S
ACCOMACK*      PTSUNNY   43  30  61 N8        29.76S
$$

NCZ012>017-030>032-081700-
NORTH CENTRAL AND EASTERN NORTH CAROLINA

CITY           SKY/WX    TMP DP  RH WIND       PRES   REMARKS
ROANOKE RAPIDS FAIR      45  27  49 SW5       29.81F
RALEIGH        PTSUNNY   49  28  44 S7        29.79F
ELIZABETH CITY SUNNY     45  32  60 N8        29.80R
AHOSKIE*       SUNNY     43  26  51 CALM      29.81F
EDENTON*       SUNNY     46  32  57 W5        29.82S
CURRITUCK*     SUNNY     44  33  63 N9        29.80R
KILL DEVIL HLS SUNNY     46  32  58 NW8       29.78R
MANTEO         SUNNY     43  33  65 NW10G16   29.80R
CAPE HATTERAS  SUNNY     45  32  60 NW9       29.81R
TARBORO*       FAIR      46  27  46 CALM      29.83F
GOLDSBORO      SUNNY     48  27  43 VRB2      29.81F
WASHINGTON     SUNNY     45  29  53 CALM      29.82F
GREENVILLE     SUNNY     45  27  49 CALM      29.85F
NEW BERN       SUNNY     48  27  44 W5        29.84F
WILMINGTON     SUNNY     50  30  46 CALM      29.86F
$$

VAZ048-081700-
ELSEWHERE

CITY           SKY/WX    TMP DP  RH WIND       PRES   REMARKS
HARRISBURG PA  PTSUNNY   39  26  59 E12       29.77F
BALTIMORE      PTSUNNY   42  27  55 NE10      29.77F
ANNAPOLIS        N/A     41  27  57 NE7       29.78F
ANDREWS AFB    FAIR      42  28  57 E10       29.76F
PHILADELPHIA   CLOUDY    41  27  57 N14       29.78F
HENDERSON NC   MOSUNNY   47  22  37 CALM      29.79S
GREENSBORO     CLOUDY    46  24  42 SW6       29.75F
ROCKY MOUNT    SUNNY     47  21  35 CALM      29.81F
$$

VAZ100-081700-
MARINE

STATION/POSITION TIME  TEMP    WIND        PRES    WAVE   SWELL
                       AIR SEA DIR/SP/G            HT/PER HT/PER
                 (UTC) (F)     (DEG/KT/KT) (MB)    (FT/S) (FT/S)
BRANDYWINE LGT   1500   38      10/ 14/ 16 1008.0R
CAPE MAY NJ      1500   39 42  350/  6/ 10 1007.6R
LEWES DE         1524   39 41   10/ 15/ 18 1007.6F
15NM E FENWICK I 1550   40 44              1006.2R  15/11
OCEAN-CITY-INLET 1500   40 41   20/ 14/ 25 1006.7R
WACHAPREAGUE VA  1500   41 42  350/  7/ 11 1007.4F
THOMAS POINT MD  1600   38      10/ 11/ 12   N/A
GOOSES REEF MD   1600   39 40  360/ 10/ 12 1009.4F   1/ 2
COVE POINT MD    1500   37      20/ 11/ 14 1009.1F
SOLOMONS ISLAND  1500   39 41  360/  7/ 12   N/A
BISHOPS HEAD MD  1500   41 39  360/  8/ 13 1007.1F
POTOMAC MD       1600   41 40   20/  6/ 10 1007.3S   1/ 2
CAMBRIDGE MD     1500   39 40  360/ 10/ 13 1007.4F
LEWISETTA VA     1500   40 40   30/  6/  9 1008.1F
RAPPAHANNOCK LGT 1500          350/ 17/ 18 1007.8F
STINGRAY PT      1600   40 41  340/  8/ 12 1008.4R   2/ 3
YORK RVR RNG VA  1500   40     360/ 11/ 12 1007.8R
YORKTOWN VA      1500   40 42   10/ 10/ 12 1008.3F
JAMESTOWN VA     1600   43 44  270/  2/  2   N/A     0
DOMINION TERM VA 1500   41     360/  9/ 11 1008.5R
KIPTOPEKE VA     1500      42  350/ 13/ 16   N/A
CHES BAY BRIDGE  1500   40 43  330/ 12/ 15 1007.8R
CAPE HENRY VA    1500   39     330/ 13/ 16   N/A
CHESAPEAKE LGHT  1500   41     340/ 20/ 21 1008.2R
WILLOUBY STN VA  1500   41     350/ 10/ 11   N/A
CAPE HENRY BUOY  1528      46                N/A     8/13   5/13
1ST LANDING BUOY 1600      44                N/A     5/ 7
CAPE CHARLES BUO 1526      44                N/A     9/12   8/12
OFFSHORE WE BUOY 1521      47                N/A    11/10  11/10
64NM E OF VA BCH 1550   45 53  340/ 21/ 25 1005.7R  19/13  16/13
DUCK PIER NC     1500   40     330/ 14/ 16 1007.6R
44100 DUCK FRF   1524      47                N/A    12/11  10/11
44056 DUCK FRF   1511      44                N/A    10/13   7/13
OREGON INLET NC  1500   41 45  310/ 14/ 16 1008.2R
HATTERAS NC      1500   41 50  310/ 16/ 18 1008.6R
DIAMOND SHLS NC  1550   43 50  320/ 16/ 19 1009.0R  17/16  16/16
$$




USA.gov is the U.S. government's official web portal to all federal, state and local government web resources and services.